Regional Weather Roundup
Issued by NWS Cleveland, OH

Home | Current Version | Previous Version | Graphics & Text | Print | Product List | Glossary On
Versions: 1 2 3 4 5 6 7 8 9 10 11 12 13 14 15 16 17 18 19 20 21 22 23 24 25 26 27 28 29 30 31 32 33 34 35 36 37 38 39 40 41 42 43 44 45 46 47 48 49 50
000
ASUS41 KCLE 281202
RWRCLE
OHIO REGIONAL WEATHER ROUNDUP
NATIONAL WEATHER SERVICE CLEVELAND, OH
800 AM EDT TUE JUL 28 2015

NOTE: "FAIR" INDICATES FEW OR NO CLOUDS BELOW 12,000 FEET WITH NO
SIGNIFICANT WEATHER AND/OR OBSTRUCTIONS TO VISIBILITY.

OHZ001>008-015>018-024>027-034-035-043-044-281300-
   NORTHWEST OHIO

CITY           SKY/WX    TMP DP  RH WIND       PRES   REMARKS
DEFIANCE       SUNNY     68  63  84 CALM      30.04S
FINDLAY        SUNNY     71  64  78 E3        30.04R
TOLEDO EXPRESS SUNNY     68  65  90 CALM      30.04R
TOLEDO EXEC    SUNNY     73  67  81 E3        30.05R
LIMA           MOSUNNY   71  65  81 E3        30.04R
$$

OHZ009>014-019>023-028>033-038-089-281300-
   NORTHEAST OHIO

CITY           SKY/WX    TMP DP  RH WIND       PRES   REMARKS
CLE-HOPKINS    SUNNY     74  63  68 CALM      30.06R
CLE-LAKEFRONT  SUNNY     75  63  66 S3        30.03R
CUY CO. ARPT   SUNNY     75  66  73 SE6       30.05R
LORAIN-ELYRIA  SUNNY     67  64  90 CALM      30.05R
ASHTABULA      SUNNY     67  64  90 CALM      30.07R
AKRON-CANTON   SUNNY     71  64  78 CALM      30.06R
WOOSTER        SUNNY     70  65  84 E3        30.07R
MANSFIELD      SUNNY     72  65  78 SE5       30.06S
YOUNGSTOWN     SUNNY     69  65  86 E6        30.06S
$$

OHZ042-051>053-060>062-070>072-077>081-281300-
  SOUTHWEST OHIO

CITY           SKY/WX    TMP DP  RH WIND       PRES   REMARKS
CINC-COVINGTON PTSUNNY   75  73  93 E5        30.01R FOG
CINC-LUNKEN    SUNNY     71  71 100 NE3       30.01R FOG
HAMILTON       SUNNY     75  72  90 CALM      30.02R FOG
DAYTON         PTSUNNY   73  66  78 E3        30.04R
WRIGHT-PAT AFB MOSUNNY   71  67  85 E1        30.03R
DAYTON GENERAL   N/A    N/A N/A N/A MISG      30.02R
WILMINGTON     SUNNY     71  68  90 CALM      30.03R FOG
$$

OHZ036-037-039>041-045>050-054>059-063>069-073>076-082>088-281300-
  CENTRAL AND SOUTHEAST OHIO

CITY           SKY/WX    TMP DP  RH WIND       PRES   REMARKS
COLUMBUS       PTSUNNY   74  65  73 CALM      30.03R
OSU AIRPORT    CLOUDY    72  68  87 N3        30.03R
BOLTON FIELD   CLOUDY    72  70  94 CALM      30.04S
RICKENBACK AFB NOT AVBL
NEWARK         PTSUNNY   71  65  81 CALM      30.03R
MARION         SUNNY     70  63  78 CALM      30.04S
LANCASTER      CLOUDY    72  67  84 CALM      30.03R
ZANESVILLE     MOSUNNY   70  65  84 N3        30.03R
NEW PHILLY     SUNNY     68  66  93 CALM      30.05R
$$


USA.gov is the U.S. government's official web portal to all federal, state and local government web resources and services.